Location: Bosdarros
(43.2167°N, 0.3667°W)
Time: 03:01:22
(UTC+00:00)

Spot 2 Rocket - Pass Details

Date: 22 April 2021
Orbit: 756 x 773 km, 98.5° (Epoch: 15 May)

Event Time Altitude Azimuth Distance (km) Brightness Sun altitude
Exits shadow 20:32:07 26° 103° (ESE) 1,472 4.4 -16.9°
Maximum altitude 20:33:50 33° 67° (ENE) 1,272 4.4 -17.1°
Drops below altitude 10° 20:38:21 10° 5° (N) 2,308 6.4 -17.8°
Sets 20:40:50 0° 356° (N) 3,236 7.4 -18.1°
